• MPC Preparation (Info)

  • MPEC 2014-U105: 2014 UF115

    The following Minor Planet Electronic Circular may be linked-to from your own Web pages, but must not otherwise be redistributed electronically.

    A form allowing access to any MPEC is at the bottom of this page.


    Read MPEC 2014-U104 Read MPEC 2014-U106


    M.P.E.C. 2014-U105                               Issued 2014 Oct. 28, 14:39 UT
    
         The Minor Planet Electronic Circulars contain information on unusual
             minor planets and routine data on comets.  They are published
       on behalf of Commission 20 of the International Astronomical Union by the
              Minor Planet Center, Smithsonian Astrophysical Observatory,
                              Cambridge, MA 02138, U.S.A.
    
                 Prepared using the Tamkin Foundation Computer Network
    
                                  MPC@CFA.HARVARD.EDU
                URL https://www.minorplanetcenter.net/    ISSN 1523-6714
    
                                      2014 UF115
    
    Observations:
         K14UB5F* C2014 10 25.43613 04 44 28.66 +12 15 13.9          20.1 VqEU105G96
         K14UB5F  C2014 10 25.44306 04 44 29.27 +12 14 54.6          20.4 VqEU105G96
         K14UB5F  C2014 10 25.45001 04 44 29.90 +12 14 36.3          20.6 VqEU105G96
         K14UB5F  C2014 10 25.45695 04 44 30.52 +12 14 17.4          20.8 VqEU105G96
         K14UB5F KC2014 10 25.52231 04 44 36.44 +12 11 19.6          20.6 RoEU105291
         K14UB5F KC2014 10 25.52377 04 44 36.58 +12 11 14.7          20.6 RoEU105291
         K14UB5F KC2014 10 25.52522 04 44 36.67 +12 11 11.4          20.7 RoEU105291
         K14UB5F KC2014 10 26.31987 04 45 53.98 +11 34 48.8          20.1 RoEU105291
         K14UB5F KC2014 10 26.32130 04 45 54.09 +11 34 45.2          20.5 RoEU105291
         K14UB5F KC2014 10 26.32272 04 45 54.21 +11 34 41.3          20.6 RoEU105291
         K14UB5F  C2014 10 26.35172904 45 56.72 +11 33 19.9          20.1 RtEU105H01
         K14UB5F  C2014 10 26.35939904 45 57.41 +11 32 58.6          20.6 RtEU105H01
         K14UB5F  C2014 10 26.36446104 45 57.85 +11 32 44.5          20.2 RtEU105H01
         K14UB5F  C2014 10 26.37899304 45 59.14 +11 32 04.0          20.1 RtEU105H01
         K14UB5F KC2014 10 26.38388 04 45 59.30 +11 31 49.9          20.5 RqEU105H36
         K14UB5F KC2014 10 26.39446 04 46 00.31 +11 31 19.4          20.5 RqEU105H36
         K14UB5F KC2014 10 27.31246 04 47 27.45 +10 48 06.8          21.3 VqEU105H21
         K14UB5F HC2014 10 27.32168 04 47 28.27 +10 47 39.9                qEU105H21
         K14UB5F KC2014 10 27.33031 04 47 29.03 +10 47 15.0                qEU105H21
         K14UB5F KC2014 10 27.36565204 47 32.15 +10 45 34.4          20.9 VuEU105H21
         K14UB5F KC2014 10 27.36991804 47 32.54 +10 45 22.4          20.8 VuEU105H21
         K14UB5F KC2014 10 27.37432604 47 32.90 +10 45 09.7          20.9 VuEU105H21
         K14UB5F KC2014 10 28.43437 04 49 11.45 +09 53 42.5          20.7 RqEU105H36
         K14UB5F  C2014 10 28.43670 04 49 11.96 +09 53 38.7          20.1 VqEU105G96
         K14UB5F  C2014 10 28.43844 04 49 12.03 +09 53 33.1          19.8 VqEU105G96
         K14UB5F  C2014 10 28.44017 04 49 12.23 +09 53 27.6          20.0 VqEU105G96
         K14UB5F  C2014 10 28.44777 04 49 12.90 +09 53 05.4          19.9 VqEU105G96
         K14UB5F KC2014 10 28.46413 04 49 14.12 +09 52 14.6          21.0 RqEU105H36
    
    Observer details:
    291 LPL/Spacewatch II.  Observer A. F. Tubbiolo.  1.8-m f/2.7 reflector + CCD.
    G96 Mt. Lemmon Survey.  Observers E. J. Christensen, J. A. Johnson.  Measurers
        E. J. Christensen, A. R. Gibbs, A. D. Grauer, R. E. Hill, J. A. Johnson,
        R. A. Kowalski, S. M. Larson, F. C. Shelly.  1.5-m reflector + CCD.
    H01 Magdalena Ridge Observatory, Socorro.  Observers W. H. Ryan, E. V. Ryan.
        Measurer W. H. Ryan.  2.4-m f/8.9 reflector + CCD.
    H21 Astronomical Research Observatory, Westfield.  Observers R. Holmes,
        T. Linder.  Measurers R. Holmes, T. Linder, L. Buzzi, S. Foglia,
        T. Vorobjov.  0.61-m f/4.0 astrograph + CCD, 0.76-m f/3.0 astrograph + CCD.
    H36 Sandlot Observatory, Scranton.  Observer G. Hug.  0.56-m reflector + CCD.
    
    Orbital elements:
    2014 UF115                                               Earth MOID = 0.3476 AU
    Epoch 2014 Dec. 9.0 TT = JDT 2457000.5                  MPC
    M 351.72331              (2000.0)            P               Q
    n   0.31322529     Peri.  247.77836     -0.18728878     -0.96187643
    a   2.1473269      Node   214.95473     +0.97953550     -0.16765317
    e   0.4446827      Incl.   20.35555     +0.07370967     -0.21606979
    P   3.15           H   20.4           G   0.15           U   8
    Residuals in seconds of arc
    141025 G96  0.2+  0.3+    141026 H01  0.0   0.2-    141027 H21  0.7+  0.2+
    141025 G96  0.1+  0.2-    141026 H01  0.1+  0.2-    141027 H21  0.3+  0.2+
    141025 G96  0.2+  0.3+    141026 H01  0.0   0.2-    141028 H36  0.6-  0.4-
    141025 G96  0.1+  0.3+    141026 H01  0.0   0.3-    141028 G96  0.4+  0.6+
    141025 291  0.3+  0.1+    141026 H36  1.0-  0.6+    141028 G96  0.7-  0.1+
    141025 291  0.4+  0.8-    141026 H36  0.1+  0.4-    141028 G96  0.0   0.3-
    141025 291  0.2-  0.1-    141027 H21  0.0   0.0     141028 G96  0.3+  0.0
    141026 291  0.2+  0.1-    141027 H21  0.2+  0.5-    141028 H36  0.6+  0.1-
    141026 291  0.0   0.2+    141027 H21  0.2+  0.7-
    141026 291  0.1-  0.3+    141027 H21  0.5+  0.0
    
    Ephemeris:
    2014 UF115               a,e,i = 2.15, 0.44, 20                  q = 1.1924
    Date    TT    R. A. (2000) Decl.     Delta      r     Elong.  Phase     V
    2014 09 28    03 54 52.3 +25 15 00   0.7478  1.5398   122.6    33.3    22.1
    ...
    2014 10 13    04 23 09.9 +19 53 27   0.5868  1.4576   132.0    30.6    21.4
    ...
    2014 10 21    04 37 10.7 +15 21 57   0.5144  1.4159   137.0    28.7    21.0
    ...
    2014 10 27    04 46 57.7 +11 03 08   0.4676  1.3860   140.2    27.3    20.7
    2014 10 28    04 48 31.5 +10 15 11   0.4605  1.3811   140.7    27.1    20.6
    2014 10 29    04 50 04.0 +09 25 50   0.4536  1.3763   141.1    27.0    20.6
    ...
    2014 11 04    04 58 53.0 +04 01 31   0.4168  1.3482   143.0    26.3    20.3
    ...
    2014 11 12    05 09 23.7 -04 16 14   0.3804  1.3133   142.8    27.1    20.1
    ...
    2014 11 27    05 25 00.3 -21 00 27   0.3520  1.2576   134.1    34.3    20.1
    
    A. U. Tomatic                (C) Copyright 2014 MPC           M.P.E.C. 2014-U105
    

    Read MPEC 2014-U104 Read MPEC 2014-U106


    MPEC number:

    Enter an MPEC number in one of the following forms:

    • 1997-B01 (the full form)
    • J97B01 (the packed version of the full form)
    • B01 (the abbreviated form)